Miscellaneous Local Product
Issued by NWS North Platte, NE

Home | Current Version | Previous Version | Text Only | Print | Product List | Glossary On
Versions: 1 2 3 4 5 6 7 8 9 10 11 12 13 14 15 16 17 18 19 20 21 22 23 24 25 26 27 28 29 30 31 32 33 34 35 36 37 38 39 40 41 42 43 44 45 46 47 48 49 50
003
AXUS43 KLBF 242310
MISLBF


WESTERN AND NORTH CENTRAL NEBRASKA HOURLY WEATHER ROUNDUP
NATIONAL WEATHER SERVICE NORTH PLATTE NE
600 PM CDT SUN SEP 24 2017

NOTE: "FAIR" INDICATES FEW OR NO CLOUDS BELOW 12,000 FEET WITH NO
SIGNIFICANT WEATHER AND/OR OBSTRUCTIONS TO VISIBILITY.

NOTE: STATIONS NOT REPORTING VARIABLES SUCH AS SKY/WEATHER OR
PRESSURE ARE PROVIDED BY RAWS AND APRS NETWORKS AND ARE NOT UNDER
NATIONAL WEATHER SERVICE QUALITY CONTROL.

...OBSERVATIONS IN AND NEAR THE EASTERN PANHANDLE OF NEBRASKA...

CITY           SKY/WX    TMP DP  RH WIND       PRES   REMARKS
PINE RIDGE     CLOUDY    50  44  80 NE7       30.06R
GORDON         CLOUDY    49  44  85 N10       30.05R
CHADRON        CLOUDY    51  42  71 E12       30.05S
ALLIANCE       CLOUDY    50  43  77 NE10      30.03R
SIDNEY         CLOUDY    51  47  86 NE10      30.00F
$$

...OBSERVATIONS IN NORTHERN NEBRASKA AND FAR SOUTHERN SOUTH DAKOTA...

CITY           SKY/WX    TMP DP  RH WIND       PRES   REMARKS
WINNER         CLOUDY    56  50  80 N13       30.02R
VALENTINE      CLOUDY    55  47  74 N10       30.03R
THEDFORD       DRIZZLE   55  50  83 N12       30.02R
AINSWORTH      CLOUDY    54  50  87 N12       30.02R
O`NEILL        CLOUDY    55  54  95 NW14      29.99S
ORD            CLOUDY    58  51  78 N10       29.97R
BROKEN BOW     LGT RAIN  57  52  83 N8        29.97S
$$

...OBSERVATIONS IN SOUTHWEST NEBRASKA AND FAR NORTHEAST COLORADO...

CITY           SKY/WX    TMP DP  RH WIND       PRES   REMARKS
WRAY           CLOUDY    52  52 100 NE9       29.97S
HOLYOKE        CLOUDY    54  50  87 NE13      29.99F
IMPERIAL       CLOUDY    53  50  89 NE13      29.98S
OGALLALA       CLOUDY    55  49  81 NE9       30.00S
NORTH PLATTE   LGT RAIN  55  53  93 N9        29.98F
MCCOOK         LGT RAIN  56  56 100 NE9       29.95F FOG
LEXINGTON      LGT RAIN  57  55  92 N9        29.96F
GOTHENBURG       N/A     57  51  79 NE3         N/A
CALLAWAY         N/A     58  54  88 NE3         N/A
$$

...OBSERVATIONS IN CENTRAL LINCOLN COUNTY AREA...

CITY           SKY/WX    TMP DP  RH WIND       PRES   REMARKS
N.P. AIRPORT   LGT RAIN  55  53  93 N9        29.98F
$$

...SOME OBSERVATIONS FROM AROUND THE REGION...

CITY           SKY/WX    TMP DP  RH WIND       PRES   REMARKS
DENVER         CLOUDY    48  45  89 E14       29.98S FOG
LIMON            N/A    N/A N/A N/A MISG        N/A
ASPEN          CLOUDY    50  28  42 N14G26    29.96R
LARAMIE        LGT RAIN  41  36  82 E16G25    29.98S
CASPER         CLOUDY    40  38  93 NE15      30.06S WCI  32
CHEYENNE       LGT RAIN  43  41  93 E12       30.01S FOG
SCOTTSBLUFF    CLOUDY    52  43  71 NE14      30.02S
GRAND ISLAND   LGT RAIN  60  57  89 N10       29.95R
OMAHA          CLOUDY    78  67  68 CALM      29.87S
SIOUX FALLS    LGT RAIN  61  59  93 NW8       29.94R
PIERRE         CLOUDY    55  46  71 N15       30.01R
RAPID CITY     CLOUDY    50  41  71 N15       30.07R
BISMARCK       CLOUDY    52  47  83 NW9       30.06R
KANSAS CITY    MOSUNNY   84  67  56 S7        29.91S
HILL CITY      CLOUDY    64  61  90 N9        29.92R
WICHITA        PTSUNNY   85  63  47 S15       29.85F
DODGE CITY     PTSUNNY   79  63  57 S18       29.85F
OKLAHOMA CITY  PTSUNNY   86  60  41 S17       29.87S
DALLAS         MOSUNNY   92  61  35 SE13      29.82S HX  92
AMARILLO       MOSUNNY   77  64  64 SE21      29.88S
$$




USA.gov is the U.S. government's official web portal to all federal, state and local government web resources and services.